Home   Weather   Linden   Past weeks

Flag for Guyana Past Weather in Linden, Guyana — Yesterday and Last 2 Weeks

Now
75 °F

Partly cloudy.


Feels Like: 73 °F
Forecast: 76 / 89 °F
Wind: 2 mph from Southwest

Location: Georgetown/Cheddi Jagan International Airport

Current Time: Aug 20, 2017 at 2:14:39 am

Latest Report: Aug 20, 2017 at 1:00 am


Visibility: N/A

Pressure: 29.83 "Hg

Humidity: 100%

Dew Point: 75 °F

Location of LindenLocation

Past Weather in Linden — Graph

°F

Linden Temperature Yesterday

Maximum temperature yesterday: 90 °F (at 12:00 pm)
Minimum temperature yesterday: 75 °F (at 4:00 am)
Average temperature yesterday: 80 °F

High & Low Weather Summary for the Past Weeks

 TemperatureHumidityPressure
High93 °F (Aug 9, 2:00 pm)100% (Aug 5, 1:00 am)29.98 "Hg (Aug 5, 1:00 am)
Low72 °F (Aug 8, 5:10 am)56% (Aug 7, 2:00 pm)29.77 "Hg (Aug 15, 3:00 pm)
Average80 °F86%29.88 "Hg
* Reported Aug 5 1:00 am — Aug 20 1:00 am, Linden. Weather by CustomWeather, © 2017

Note: Actual official high and low records may vary slightly from our data, if they occured in-between our weather recording intervals... More about our weather records

Advertising

Linden Weather History for the Previous 24 Hours

Scroll right to see more
 ConditionsComfort  
Time TempWeatherWind HumidityBarometerVisibility
1:00 am
Sun, Aug 20
75 °FPartly cloudy.2 mph100%29.83 "HgN/A
12:00 am77 °FPassing clouds.5 mph100%29.83 "HgN/A
11:00 pm
Sat, Aug 19
77 °FPassing clouds.2 mph100%29.86 "HgN/A
10:00 pm77 °FPassing clouds.5 mph100%29.86 "HgN/A
9:00 pm79 °FPassing clouds.No wind94%29.86 "HgN/A
8:00 pm79 °FPassing clouds.No wind94%29.83 "HgN/A
7:00 pm79 °FPassing clouds.2 mph94%29.83 "HgN/A
6:00 pm81 °FPassing clouds.2 mph89%29.80 "HgN/A
5:00 pm81 °FPartly sunny.2 mph89%29.77 "HgN/A
4:00 pm81 °FScattered clouds.2 mph89%29.77 "HgN/A
3:00 pm79 °FSprinkles. Partly sunny.5 mph89%29.77 "HgN/A
2:00 pm81 °FThunderstorms. Partly sunny.18 mph79%29.80 "HgN/A
1:00 pm90 °FPartly sunny.14 mph67%29.80 "HgN/A
12:00 pm90 °FPartly sunny.12 mph63%29.83 "HgN/A
11:00 am88 °FPartly sunny.9 mph70%29.83 "HgN/A
10:00 am88 °FPartly sunny.7 mph70%29.86 "HgN/A
9:00 am84 °FPartly sunny.7 mph79%29.86 "HgN/A
8:00 am82 °FPassing clouds.2 mph84%29.86 "HgN/A
7:00 am77 °FPassing clouds.2 mph94%29.86 "HgN/A
6:00 am75 °FFog.5 mph100%29.83 "Hg3 mi
5:00 am75 °FFog.2 mph94%29.80 "Hg2 mi
4:00 am75 °FFog.5 mph100%29.80 "Hg3 mi
3:00 am77 °FPassing clouds.5 mph94%29.80 "Hg6 mi
2:00 am77 °FPassing clouds.2 mph94%29.80 "HgN/A
Weather by CustomWeather, © 2017

See weather overviewHow to use our weather pages